Regional Weather Roundup
Issued by NWS Cleveland, OH

Home | Current Version | Previous Version | Graphics & Text | Print | Product List | Glossary On
Versions: 1 2 3 4 5 6 7 8 9 10 11 12 13 14 15 16 17 18 19 20 21 22 23 24 25 26 27 28 29 30 31 32 33 34 35 36 37 38 39 40 41 42 43 44 45 46 47 48 49 50
000
ASUS41 KCLE 221102
RWRCLE
OHIO REGIONAL WEATHER ROUNDUP
NATIONAL WEATHER SERVICE CLEVELAND, OH
700 AM EDT SUN OCT 22 2017

NOTE: "FAIR" INDICATES FEW OR NO CLOUDS BELOW 12,000 FEET WITH NO
SIGNIFICANT WEATHER AND/OR OBSTRUCTIONS TO VISIBILITY.

OHZ001>008-015>018-024>027-034-035-043-044-221200-
   NORTHWEST OHIO

CITY           SKY/WX    TMP DP  RH WIND       PRES   REMARKS
DEFIANCE       CLEAR     56  46  69 S5        30.13F
FINDLAY        CLEAR     53  47  79 SE9       30.16F
TOLEDO EXPRESS CLOUDY    53  49  86 CALM      30.15S
TOLEDO EXEC    CLOUDY    53  48  83 SE7       30.17S
LIMA           CLEAR     54  48  80 S9        30.16S
$$

OHZ009>014-019>023-028>033-038-089-221200-
   NORTHEAST OHIO

CITY           SKY/WX    TMP DP  RH WIND       PRES   REMARKS
CLE-HOPKINS    PTCLDY    56  50  80 SE6       30.24F
CLE-LAKEFRONT  CLEAR     57  49  74 S15       30.21F
CUY CO. ARPT   CLEAR     59  52  77 S12       30.24
LORAIN-ELYRIA  CLEAR     50  44  80 SE6       30.22S
ASHTABULA      CLEAR     53  50  89 SE6       30.27F
AKRON-CANTON   PTCLDY    56  49  77 SE9       30.25F
WOOSTER        CLEAR     41  40  96 SE3       30.25S FOG
MANSFIELD      CLEAR     54  49  83 S8        30.22F
YOUNGSTOWN     PTCLDY    51  49  92 SE7       30.27F
$$

OHZ042-051>053-060>062-070>072-077>081-221200-
  SOUTHWEST OHIO

CITY           SKY/WX    TMP DP  RH WIND       PRES   REMARKS
CINC-COVINGTON PTCLDY    55  49  80 S9        30.17S
CINC-LUNKEN    CLEAR     47  46  97 CALM      30.20R FOG
HAMILTON       CLEAR     52  49  89 E3        30.19R
DAYTON         CLOUDY    52  50  93 SE7       30.19R
WRIGHT-PAT AFB CLEAR     54  50  86 CALM      30.18S
DAYTON GENERAL CLOUDY    57  48  72 S8        30.18R
WILMINGTON     CLEAR     55  49  80 S8        30.20S
$$

OHZ036-037-039>041-045>050-054>059-063>069-073>076-082>088-221200-
  CENTRAL AND SOUTHEAST OHIO

CITY           SKY/WX    TMP DP  RH WIND       PRES   REMARKS
COLUMBUS       PTCLDY    53  50  89 SE3       30.22S
OSU AIRPORT    CLEAR     55  51  86 SE3       30.22R
BOLTON FIELD   NOT AVBL
RICKENBACK AFB CLEAR     48  49 100 CALM      30.22S
NEWARK         FOG       46  44  93 CALM      30.24R VSB 1
MARION         CLEAR     53  47  79 S10       30.21S
LANCASTER      CLEAR     48  47  96 CALM      30.23S
ZANESVILLE     CLEAR     54  49  83 SE6       30.25S
NEW PHILLY     NOT AVBL
$$



USA.gov is the U.S. government's official web portal to all federal, state and local government web resources and services.